Temperature
22 21 21 20 20 20 22 24 25 25 25 25 24 24 23 22 21 20 20 20 20 20 20 20 20 20 20 20 20 20 20 20 20 20 20 20 19 19 19 19 19 19 19 19 19 19 19 18 18
22 21 21 20 20 21 23 25 25 25 25 25 24 24 23 22 21 20 20 20 21 21 20 20 20 20 20 20 20 20 20 20 20 20 20 20 20 19 19 19 19 19 19 19 19 19 19 19 18
22 21 21 20 21 22 23 25 25 26 26 25 24 24 23 22 21 21 21 21 21 21 20 20 20 20 20 20 20 20 20 20 20 20 20 20 20 19 19 19 19 19 19 19 19 19 19 19 18
22 21 21 21 23 24 25 25 26 26 25 25 24 23 22 22 22 21 21 21 21 21 20 20 20 20 20 20 20 20 20 20 20 20 20 20 19 19 19 19 19 19 19 19 19 19 19 19 18
22 22 21 22 24 26 26 26 26 25 25 24 24 22 22 22 22 21 21 21 21 21 21 21 20 20 20 20 20 20 20 20 20 20 20 19 19 19 19 19 19 19 19 19 19 19 19 18 18
22 22 22 23 25 26 26 27 26 25 25 24 23 22 22 22 22 21 21 21 21 21 21 21 20 20 20 20 20 20 20 20 20 20 19 19 19 19 19 19 19 19 19 19 19 19 19 19 18
23 21 23 24 25 26 27 27 26 25 25 24 24 22 22 22 22 21 21 21 21 21 21 21 20 20 20 20 20 20 20 20 20 20 19 19 19 19 19 19 19 19 19 19 19 19 19 18 18
24 22 23 24 25 26 27 27 26 26 25 25 24 22 22 22 22 21 21 21 21 21 21 21 20 20 20 20 20 20 20 20 20 20 19 19 19 19 19 19 19 19 19 19 19 19 19 18 18
25 22 23 25 25 26 27 27 26 26 25 25 24 23 23 22 22 21 21 21 21 21 21 21 21 20 20 20 20 20 20 20 20 19 19 19 19 19 19 19 19 19 19 19 19 19 18 18 18
25 22 25 26 27 26 27 27 26 25 24 24 23 23 23 22 22 22 21 21 21 21 21 21 21 20 20 20 20 20 20 20 20 19 19 19 19 19 19 19 19 19 19 19 19 18 18 18 18
25 24 26 27 28 28 27 27 27 25 24 24 23 23 23 22 22 22 22 21 21 21 21 21 21 21 20 20 20 20 20 20 20 19 19 19 19 19 19 19 19 19 19 19 19 18 18 18 18
26 27 28 28 29 28 28 27 27 26 25 25 24 24 23 23 22 22 22 21 21 21 21 21 21 21 20 20 20 20 20 20 20 19 19 19 19 19 19 19 19 19 19 18 18 18 18 18 18
27 28 29 29 29 29 28 27 26 26 26 25 24 24 23 23 23 22 22 22 21 21 21 21 21 21 20 20 20 20 20 20 20 19 19 19 19 19 19 19 19 19 18 18 18 18 18 18 18
28 28 28 29 29 28 27 27 26 26 26 25 24 24 24 23 23 23 22 22 22 21 21 21 21 21 21 20 20 20 20 20 20 19 19 19 19 19 19 19 19 19 18 18 18 18 18 18 18
29 27 28 28 29 28 27 26 26 26 26 25 25 24 24 24 23 23 23 22 22 22 21 21 21 21 21 20 20 20 20 20 20 19 19 19 19 19 19 19 19 18 18 18 18 18 18 18 18
27 26 26 28 28 28 27 25 26 27 26 25 25 24 24 24 24 23 23 23 22 22 22 21 21 21 21 20 20 20 20 20 20 19 19 19 19 19 19 19 18 18 18 18 18 18 18 18 18
25 25 26 28 29 28 27 25 26 27 26 25 25 24 24 24 24 23 23 23 23 22 22 21 21 21 21 20 20 20 20 19 19 19 19 19 19 19 19 19 19 18 18 18 18 18 18 18 18
25 25 26 27 28 28 26 25 26 26 26 25 25 25 24 24 24 24 23 23 23 22 22 21 21 21 21 20 20 20 19 19 19 19 19 19 19 19 19 19 18 18 18 18 18 18 18 18 18
26 27 26 27 28 27 26 26 26 26 26 25 25 25 24 24 24 24 23 23 23 22 22 21 21 21 20 20 20 20 20 19 19 19 19 19 19 19 19 19 18 18 18 18 18 18 18 18 18
27 26 27 27 28 27 26 26 26 26 26 26 25 25 25 24 24 23 23 23 22 22 22 21 21 21 21 20 20 20 19 19 19 19 19 19 19 19 19 19 19 18 18 18 18 18 18 18 18
27 26 27 26 27 27 26 25 25 26 26 26 25 25 25 24 24 23 23 23 22 22 22 21 21 21 21 20 20 19 19 19 19 19 19 19 19 19 19 19 18 18 18 18 18 18 18 18 18
26 28 28 28 26 24 26 24 25 25 25 25 25 25 25 24 24 24 23 23 22 22 22 21 21 21 21 20 20 20 19 19 19 19 19 19 19 19 18 18 18 18 18 18 18 18 18 18 18
27 28 28 27 25 24 24 24 23 24 24 24 25 25 25 24 24 24 23 23 23 22 22 22 21 21 21 20 20 20 19 19 19 19 19 19 19 18 18 18 18 18 18 18 18 18 18 17 17
29 27 26 23 22 23 24 24 23 23 24 24 24 25 25 24 24 24 23 23 23 22 22 22 21 21 20 20 20 20 20 19 19 19 19 19 18 18 18 18 18 18 18 18 18 18 17 17 17
27 24 23 23 22 22 23 23 23 24 25 25 25 25 25 24 24 23 23 23 23 22 22 22 21 21 20 20 20 20 20 20 19 19 19 19 19 18 18 18 18 18 18 18 18 18 17 17 17
26 24 23 23 22 22 23 23 24 25 26 26 26 25 25 24 23 23 23 23 23 22 22 22 21 21 21 20 20 20 19 19 19 19 19 19 19 18 18 18 18 18 18 18 18 17 17 17 17
27 25 23 22 22 22 23 23 24 25 24 24 24 24 24 23 23 23 23 23 23 23 22 22 22 21 21 20 20 20 19 19 19 19 19 19 18 18 18 18 18 18 18 17 17 17 17 17 17
27 25 22 22 22 22 23 23 22 23 23 24 23 23 23 23 23 23 23 23 23 23 22 22 22 21 21 20 20 20 19 19 19 19 19 19 18 18 18 18 18 18 17 17 17 17 17 17 17
27 26 23 20 21 22 22 22 24 23 23 23 23 23 23 23 23 23 23 23 23 23 22 22 21 21 21 20 20 20 19 19 19 19 19 18 18 18 18 18 18 17 17 17 17 17 16 16 16
26 25 22 22 22 20 21 22 24 23 23 23 23 23 23 23 23 23 23 22 22 22 22 22 21 21 21 20 20 20 19 19 19 18 18 18 18 18 18 17 17 17 17 17 17 16 16 16 16
Wind_Speed
10 8 4 1 2 3 2 1 3 4 4 6 10 10 9 7 5 6 3 9 11 9 9 11 11 12 12 12 13 14 13 13 13 14 14 14 14 14 14 14 13 13 13 13 12 12 12 12 12
8 5 2 1 3 2 1 2 5 5 7 8 10 11 9 7 7 9 6 10 11 9 9 10 11 11 11 11 13 14 14 14 13 13 13 13 13 13 13 13 12 12 12 12 12 12 11 11 10
6 4 1 1 1 3 3 3 5 7 7 6 6 7 6 5 7 6 9 13 11 8 8 11 12 11 11 12 13 14 14 14 13 13 13 12 12 12 12 12 12 11 11 11 11 11 10 10 10
2 1 1 2 1 3 6 4 6 8 7 7 8 7 5 5 5 9 14 14 12 8 9 11 13 12 12 12 14 15 14 14 13 13 12 12 11 11 11 11 10 10 10 10 10 10 10 9 9
1 1 2 1 1 3 5 6 6 6 4 8 10 8 5 5 12 15 15 14 12 8 8 11 13 12 12 13 14 14 14 13 12 12 11 11 11 10 10 10 9 9 9 9 9 9 9 8 8
1 1 2 1 2 3 5 7 8 9 10 11 10 8 4 7 12 13 14 12 11 10 8 10 12 12 12 13 13 13 13 12 11 10 10 9 9 9 9 9 9 8 8 8 8 8 8 7 6
2 1 1 2 3 4 4 5 7 9 9 7 8 7 5 7 10 13 13 11 10 9 8 7 9 10 12 12 12 12 12 11 10 9 9 8 8 8 8 8 7 7 7 7 7 7 7 6 5
3 2 1 1 3 3 4 5 7 9 7 9 7 7 7 8 11 12 12 10 9 8 7 7 7 8 8 9 11 11 11 10 9 8 8 7 7 7 7 6 6 6 7 7 7 6 6 5 5
3 1 1 3 4 3 5 8 6 7 9 6 5 7 11 13 13 13 11 8 8 8 6 6 6 6 7 7 9 10 10 9 8 7 7 6 4 4 5 6 6 6 6 7 6 5 5 4 3
4 3 5 4 5 5 5 7 6 6 9 8 10 10 13 14 13 13 12 11 9 8 7 6 7 6 6 7 7 6 6 6 5 5 5 5 4 4 5 5 5 4 5 5 5 5 4 3 3
5 6 4 3 5 5 5 5 5 9 6 9 14 15 13 13 12 12 11 11 10 9 8 7 7 6 5 4 5 4 4 4 5 5 5 5 4 3 3 2 3 2 3 3 3 2 2 2 2
4 4 4 3 4 5 6 5 5 6 7 12 15 16 14 13 12 12 12 10 9 9 9 8 7 6 5 4 4 4 3 3 3 4 5 5 2 2 2 1 2 1 2 2 2 2 2 2 3
4 2 3 4 3 5 8 6 6 6 10 13 14 14 13 13 12 11 11 10 10 9 9 8 7 7 5 5 4 4 3 4 4 4 5 5 3 2 2 1 2 2 2 2 2 1 1 2 2
3 3 2 3 4 6 9 6 6 7 11 12 13 13 13 14 13 11 10 10 9 9 9 8 8 7 6 5 4 3 4 4 4 4 4 5 4 3 2 2 1 1 2 2 2 2 1 1 1
0 2 1 2 3 5 7 3 7 11 12 12 12 12 13 12 13 13 13 12 10 9 9 8 8 7 7 6 5 4 4 5 3 3 4 4 4 3 2 2 1 1 2 2 1 1 0 0 0
3 2 1 4 3 4 6 5 7 11 13 11 10 11 12 11 12 12 12 11 10 10 9 8 8 7 6 5 4 4 4 4 3 3 3 3 3 3 2 2 1 1 2 2 1 1 1 1 0
4 0 3 4 2 4 5 5 6 10 13 11 10 10 11 11 10 10 12 12 11 10 10 8 7 7 6 5 4 4 4 4 3 3 2 3 4 4 3 2 1 1 1 1 1 1 1 0 1
4 3 4 4 3 4 4 5 8 9 11 11 10 10 10 12 12 12 12 12 11 10 9 9 7 6 6 4 4 3 3 2 2 2 2 4 4 5 4 2 1 1 1 1 0 0 0 1 1
6 4 5 6 3 3 5 5 9 10 9 10 9 10 11 11 9 10 11 13 12 10 9 8 7 6 5 4 4 3 2 2 2 2 2 3 3 4 3 2 2 2 2 2 1 1 1 1 0
5 5 4 5 2 3 3 4 7 10 13 14 14 12 12 10 9 10 10 11 11 10 9 8 7 6 6 4 4 3 3 2 2 1 1 2 2 3 4 3 3 2 2 2 1 1 1 0 1
6 6 6 5 3 1 3 1 3 4 5 8 10 11 11 14 14 13 11 10 10 10 10 9 7 6 6 5 3 3 2 2 1 1 1 1 2 2 2 3 2 2 3 2 2 2 2 1 1
6 7 6 5 2 1 2 2 5 5 5 8 10 10 11 12 13 13 13 12 11 10 9 8 7 6 6 6 5 6 4 3 3 2 2 1 1 2 2 2 2 2 2 2 1 2 2 2 0
7 6 3 2 4 0 1 2 6 3 5 8 10 12 12 12 14 13 13 13 12 11 10 8 7 6 6 6 6 6 4 3 2 2 2 1 0 1 2 2 2 2 1 1 1 1 1 1 1
3 3 5 5 5 1 4 3 5 6 11 10 9 11 12 13 13 12 11 11 10 10 9 8 8 6 6 6 6 6 6 5 4 3 3 1 1 0 1 2 1 1 1 1 1 1 1 1 1
3 5 4 5 4 5 4 2 7 9 10 11 12 12 12 13 12 12 12 12 12 12 11 9 9 7 6 6 6 6 6 6 6 4 4 3 1 1 0 1 1 1 1 1 1 1 1 1 1
3 8 7 4 4 5 4 4 7 7 6 7 8 9 11 12 11 12 13 13 13 13 12 10 10 8 7 6 6 5 5 4 4 4 4 3 2 2 2 1 1 2 2 2 2 1 0 1 0
3 3 8 7 2 1 4 4 6 2 4 5 6 8 11 12 12 11 11 11 11 12 12 12 11 8 8 7 6 5 5 5 4 4 3 3 2 2 2 2 2 2 2 2 2 1 0 1 1
6 7 6 5 4 2 3 3 4 4 4 5 7 8 8 10 10 10 10 10 11 11 11 11 10 10 8 7 6 5 5 4 5 4 4 3 3 2 2 2 1 1 1 1 2 1 0 1 1
1 3 5 5 5 5 2 6 5 7 6 8 8 7 8 10 10 10 9 9 10 10 10 10 9 8 7 7 6 5 5 4 4 4 4 4 3 3 3 2 2 2 1 1 1 1 0 0 1
4 5 7 5 3 5 4 7 6 6 5 7 8 8 7 9 9 9 8 9 9 10 10 9 9 8 8 7 6 6 5 4 4 4 3 3 3 3 3 2 2 2 1 1 1 1 0 0 1
Wind_Direction
167 163 165 184 32 35 44 83 102 63 52 61 75 81 80 64 89 126 158 141 138 143 144 138 133 131 130 129 127 126 121 118 118 118 119 120 122 122 124 125 127 130 132 132 132 132 134 137 140
164 167 171 36 72 58 29 96 81 89 124 111 83 80 75 70 88 115 131 142 140 141 144 140 135 131 131 132 134 133 128 124 122 122 121 123 122 124 124 126 129 132 134 137 138 139 140 141 143
175 186 167 62 112 158 146 124 105 100 103 101 89 68 73 101 112 133 149 146 139 137 143 144 136 130 130 133 136 136 133 130 126 124 122 122 123 124 127 130 133 136 141 144 147 147 146 148 152
172 142 21 73 157 172 152 154 114 102 80 78 94 72 68 99 125 138 141 142 139 140 146 145 138 133 132 136 138 138 136 133 130 129 127 127 129 131 133 135 138 142 146 150 153 156 156 159 162
94 90 33 19 179 119 134 143 127 107 98 96 95 93 85 85 117 131 139 141 141 142 146 145 141 137 134 137 139 140 139 135 133 131 130 131 135 139 139 143 147 151 155 159 161 162 163 167 172
90 74 61 44 74 86 115 123 104 104 111 108 104 106 110 124 128 139 140 141 143 144 143 144 143 140 139 139 141 141 141 139 137 135 134 133 134 141 146 151 154 159 165 170 171 167 170 177 185
138 105 184 155 96 89 106 102 107 123 123 121 124 109 125 135 140 139 139 136 137 141 141 140 147 147 144 144 145 145 144 144 141 139 138 138 139 143 149 153 156 161 167 173 178 180 183 193 203
167 109 323 104 105 98 112 94 113 113 113 125 126 128 151 159 142 132 134 132 134 139 143 147 149 150 150 152 151 152 150 149 147 142 143 142 142 148 153 154 157 163 172 176 181 187 194 204 211
138 72 230 191 148 153 116 98 96 96 104 109 105 130 151 146 134 127 127 125 135 142 147 148 149 151 156 159 158 159 157 155 149 144 143 141 136 140 151 155 156 164 175 179 186 191 197 209 217
145 182 220 197 164 157 139 124 120 102 99 99 105 121 138 139 139 138 142 146 149 156 159 154 152 156 161 163 157 160 156 156 148 142 140 138 137 147 151 157 158 159 174 181 185 197 208 220 227
169 188 206 188 173 151 140 129 113 120 121 144 144 146 147 142 145 148 152 155 161 165 161 162 161 159 155 151 152 158 153 150 144 140 145 140 137 144 148 153 162 171 180 184 178 187 219 222 224
178 214 177 177 168 140 143 131 118 126 156 157 152 152 152 152 153 158 158 158 155 154 159 158 157 151 149 143 151 153 151 150 146 148 147 140 136 145 165 158 169 175 184 173 177 186 197 227 230
157 180 168 169 165 135 123 130 124 134 145 148 149 151 156 156 157 158 157 155 150 153 157 157 154 151 150 144 151 147 153 150 153 153 151 146 145 145 153 155 160 164 182 170 162 178 203 212 226
193 158 151 169 154 136 129 136 119 155 147 147 151 158 164 160 158 153 150 152 155 156 155 153 154 154 144 142 142 146 151 149 146 148 154 151 152 150 148 139 145 156 175 184 176 181 196 207 206
55 95 320 206 155 150 127 121 157 165 150 153 157 158 160 161 158 158 160 159 160 156 153 152 153 149 142 145 150 142 149 148 146 151 154 151 148 152 152 142 150 167 172 148 148 135 37 342 259
15 65 239 259 170 168 126 180 190 165 153 158 159 156 154 158 161 159 158 156 157 151 150 155 150 144 141 138 136 141 146 150 156 162 158 153 146 148 138 138 165 183 153 130 115 94 74 359 313
15 328 251 269 207 163 133 186 197 170 157 160 159 155 153 155 157 159 160 158 156 152 149 146 144 146 145 140 133 135 138 150 160 158 161 160 157 155 149 147 173 170 128 103 125 107 126 340 297
259 261 262 250 225 139 146 178 173 176 163 161 157 153 155 162 167 165 162 157 153 150 147 145 145 147 143 133 123 119 120 139 144 150 163 158 160 156 152 155 172 161 124 104 92 119 122 214 245
231 242 256 265 230 160 173 180 180 175 171 168 163 162 166 172 169 160 158 155 149 147 146 150 148 151 145 140 141 142 152 147 141 164 161 157 159 159 157 173 183 171 165 191 201 150 96 342 78
246 252 256 286 252 152 161 197 190 180 179 175 173 176 171 164 159 161 159 158 155 155 155 154 157 158 158 161 160 154 153 160 155 147 132 143 148 162 171 171 182 175 165 165 159 134 116 326 101
248 217 216 227 295 44 101 350 201 202 170 170 174 177 175 171 167 164 163 163 160 161 162 162 163 162 163 156 134 120 98 85 85 90 135 165 139 147 153 169 174 168 160 169 177 160 145 174 323
247 231 216 203 118 253 133 214 256 205 193 182 179 178 180 173 166 165 166 166 166 167 162 160 160 160 162 155 149 149 152 160 179 175 172 176 141 145 142 150 157 159 157 158 176 151 148 145 218
224 226 202 167 145 174 359 145 270 204 197 203 192 185 178 173 171 169 168 168 168 166 164 162 155 157 159 156 158 154 158 163 153 140 135 136 109 119 127 122 139 148 154 150 136 121 127 144 165
193 50 34 54 77 347 253 172 256 210 203 204 198 191 178 173 174 170 167 165 163 164 161 158 156 162 162 159 157 160 160 153 141 137 144 152 140 132 107 109 123 149 150 153 161 140 124 132 133
80 85 33 3 16 259 271 195 242 230 205 194 197 193 180 169 168 167 165 167 168 166 164 162 163 168 168 165 163 163 160 155 158 161 164 158 156 153 158 129 136 147 155 155 136 107 98 102 116
188 135 153 190 221 274 313 243 259 249 200 179 172 168 163 161 163 164 167 170 170 169 167 166 168 171 170 166 166 163 159 159 164 162 158 168 180 181 168 153 140 127 115 115 118 105 114 71 65
164 170 164 141 168 249 283 290 317 11 100 136 155 155 162 163 163 164 167 168 168 168 171 171 170 171 173 172 163 161 163 160 160 156 152 160 167 162 151 149 139 131 117 119 118 103 59 45 12
163 155 96 114 153 245 286 267 231 227 185 159 153 156 163 158 159 161 164 168 168 169 169 169 170 172 172 168 166 165 161 160 156 150 155 161 163 155 152 152 140 135 130 113 111 112 78 57 342
162 113 116 125 149 154 242 268 231 207 180 163 165 159 160 166 165 166 170 170 167 161 164 167 169 165 164 165 163 159 161 157 150 155 164 163 166 167 171 175 156 151 160 162 122 175 130 54 331
165 176 145 148 199 162 172 259 270 190 170 151 147 147 149 158 161 161 163 160 159 163 164 166 167 166 169 168 162 162 159 150 149 161 180 177 175 177 184 177 160 172 186 203 178 198 216 210 293
Height
1505 1504 1505 1505 1508 1513 1512 1501 1494 1492 1492 1492 1490 1491 1494 1498 1502 1510 1507 1506 1507 1507 1507 1507 1506 1505 1503 1503 1504 1506 1508 1509 1510 1512 1513 1514 1515 1516 1517 1519 1520 1521 1522 1523 1524 1525 1526 1528 1529
1504 1505 1506 1506 1512 1522 1514 1498 1495 1493 1493 1492 1493 1494 1496 1500 1502 1504 1505 1507 1507 1507 1507 1507 1506 1504 1502 1501 1502 1505 1508 1510 1511 1512 1514 1515 1516 1517 1518 1519 1520 1521 1522 1523 1525 1526 1527 1528 1529
1505 1505 1507 1507 1512 1517 1510 1497 1494 1493 1493 1492 1495 1497 1499 1503 1504 1505 1506 1507 1508 1508 1508 1508 1506 1504 1501 1500 1501 1505 1508 1511 1512 1513 1514 1516 1517 1517 1519 1520 1521 1522 1523 1524 1525 1526 1527 1528 1530
1506 1506 1508 1511 1511 1502 1497 1495 1493 1494 1494 1494 1495 1500 1503 1505 1505 1506 1507 1508 1509 1509 1509 1509 1508 1506 1503 1501 1503 1506 1510 1512 1514 1515 1516 1516 1517 1518 1519 1520 1521 1522 1523 1524 1525 1526 1528 1529 1530
1506 1506 1510 1513 1506 1496 1493 1492 1492 1494 1495 1497 1497 1502 1506 1507 1506 1507 1508 1509 1510 1510 1511 1511 1510 1508 1506 1505 1507 1509 1512 1514 1515 1516 1517 1518 1518 1519 1520 1520 1521 1522 1523 1524 1525 1527 1528 1529 1530
1506 1506 1515 1517 1505 1495 1493 1493 1493 1495 1497 1498 1500 1503 1508 1508 1508 1508 1509 1511 1511 1512 1512 1512 1512 1512 1511 1510 1511 1513 1514 1516 1517 1518 1518 1519 1519 1519 1520 1520 1521 1522 1523 1525 1526 1527 1528 1529 1530
1507 1509 1513 1510 1505 1499 1494 1493 1493 1495 1497 1499 1500 1503 1508 1509 1509 1510 1511 1512 1513 1513 1514 1514 1514 1514 1514 1515 1515 1516 1517 1518 1519 1519 1519 1519 1519 1519 1519 1520 1521 1522 1523 1525 1526 1527 1528 1529 1530
1503 1507 1510 1507 1504 1501 1494 1493 1494 1495 1498 1500 1500 1502 1507 1509 1510 1511 1512 1514 1514 1515 1515 1516 1516 1516 1517 1517 1518 1519 1519 1519 1520 1520 1520 1520 1519 1519 1519 1520 1521 1522 1523 1524 1526 1527 1528 1529 1530
1503 1510 1512 1505 1502 1499 1494 1495 1497 1497 1498 1500 1500 1501 1505 1508 1510 1512 1513 1515 1515 1516 1517 1517 1517 1518 1519 1519 1520 1520 1521 1521 1521 1521 1521 1520 1519 1518 1519 1520 1521 1522 1523 1524 1526 1527 1529 1529 1530
1502 1511 1504 1495 1493 1494 1494 1494 1496 1499 1499 1501 1502 1504 1506 1508 1510 1511 1513 1514 1515 1516 1517 1518 1519 1519 1520 1520 1521 1522 1522 1522 1522 1522 1522 1521 1521 1520 1520 1521 1522 1523 1524 1525 1526 1528 1529 1530 1530
1497 1500 1494 1492 1491 1491 1493 1495 1496 1498 1501 1501 1501 1504 1506 1508 1510 1511 1513 1514 1515 1516 1517 1518 1519 1520 1521 1521 1522 1523 1523 1524 1524 1524 1523 1523 1523 1522 1522 1523 1523 1524 1525 1525 1527 1528 1528 1529 1530
1494 1491 1491 1491 1490 1490 1492 1494 1496 1496 1499 1500 1501 1503 1505 1508 1510 1511 1512 1514 1515 1517 1518 1519 1520 1521 1522 1522 1523 1524 1524 1525 1525 1525 1525 1524 1524 1524 1524 1524 1524 1525 1525 1526 1527 1528 1528 1529 1529
1491 1490 1489 1490 1490 1490 1491 1493 1495 1497 1498 1500 1502 1504 1505 1507 1509 1511 1513 1514 1515 1517 1518 1519 1520 1521 1522 1523 1524 1524 1525 1525 1525 1526 1526 1525 1525 1525 1525 1525 1525 1525 1526 1526 1527 1528 1528 1528 1529
1490 1489 1488 1488 1489 1490 1491 1494 1496 1498 1498 1500 1502 1503 1505 1506 1508 1510 1512 1514 1515 1517 1518 1519 1520 1521 1522 1523 1524 1525 1525 1526 1526 1526 1526 1526 1526 1526 1526 1526 1526 1526 1527 1527 1528 1528 1528 1528 1529
1489 1491 1490 1488 1488 1491 1492 1498 1495 1496 1498 1499 1501 1502 1504 1506 1508 1509 1511 1513 1515 1516 1518 1519 1520 1522 1523 1523 1524 1525 1525 1526 1526 1527 1527 1527 1527 1527 1527 1527 1527 1527 1527 1528 1528 1528 1528 1528 1529
1490 1496 1501 1490 1487 1489 1495 1506 1494 1495 1497 1498 1500 1502 1503 1505 1507 1509 1511 1513 1515 1516 1518 1519 1520 1522 1523 1523 1524 1525 1526 1526 1527 1527 1527 1527 1528 1528 1528 1527 1527 1527 1528 1528 1528 1528 1528 1528 1529
1500 1507 1503 1494 1485 1487 1493 1502 1494 1494 1495 1497 1499 1501 1503 1505 1507 1509 1510 1512 1514 1516 1517 1519 1520 1522 1523 1524 1524 1525 1526 1526 1527 1527 1527 1527 1527 1528 1528 1528 1528 1528 1528 1528 1528 1529 1529 1529 1529
1509 1506 1501 1498 1488 1488 1492 1495 1493 1493 1494 1496 1498 1500 1502 1504 1506 1507 1509 1511 1514 1515 1517 1518 1520 1521 1522 1523 1524 1525 1525 1526 1526 1527 1527 1527 1528 1528 1528 1528 1528 1528 1528 1528 1528 1528 1528 1528 1528
1496 1499 1500 1492 1483 1488 1491 1493 1492 1492 1494 1496 1497 1499 1501 1502 1505 1507 1509 1510 1512 1515 1516 1518 1519 1520 1521 1522 1523 1524 1524 1525 1526 1526 1527 1527 1527 1527 1527 1528 1528 1528 1528 1527 1528 1528 1528 1528 1528
1492 1498 1497 1490 1482 1487 1492 1493 1489 1489 1490 1492 1495 1497 1499 1501 1504 1506 1508 1510 1511 1513 1515 1517 1518 1519 1520 1521 1522 1523 1523 1524 1525 1526 1526 1526 1527 1527 1527 1527 1527 1527 1527 1527 1527 1527 1527 1527 1527
1492 1495 1494 1494 1486 1485 1493 1500 1494 1491 1490 1492 1494 1495 1497 1498 1501 1504 1506 1508 1510 1512 1513 1515 1516 1518 1519 1520 1521 1522 1522 1523 1524 1525 1525 1526 1526 1526 1526 1526 1526 1526 1526 1526 1526 1526 1526 1526 1526
1494 1482 1482 1486 1496 1505 1500 1519 1501 1493 1491 1490 1492 1493 1495 1497 1499 1501 1504 1506 1508 1510 1512 1514 1515 1516 1517 1518 1519 1519 1520 1521 1522 1523 1524 1525 1525 1525 1525 1525 1525 1525 1526 1525 1525 1526 1525 1525 1525
1483 1476 1479 1484 1496 1505 1503 1514 1508 1494 1494 1490 1488 1490 1491 1494 1496 1499 1501 1504 1506 1509 1511 1513 1514 1515 1516 1517 1517 1518 1519 1520 1521 1522 1523 1524 1524 1524 1524 1524 1524 1525 1525 1525 1525 1525 1524 1524 1524
1473 1478 1483 1492 1504 1520 1509 1513 1512 1496 1488 1485 1485 1487 1489 1491 1494 1497 1500 1502 1505 1508 1510 1511 1513 1514 1515 1515 1516 1517 1518 1519 1520 1521 1522 1522 1523 1523 1523 1524 1524 1524 1524 1524 1524 1523 1523 1523 1523
1475 1496 1517 1521 1529 1525 1506 1508 1504 1482 1477 1478 1480 1483 1485 1488 1492 1495 1497 1500 1503 1505 1507 1509 1511 1512 1514 1514 1515 1516 1517 1518 1519 1520 1521 1521 1522 1522 1522 1522 1523 1523 1523 1523 1523 1522 1522 1522 1522
1479 1493 1519 1531 1533 1524 1507 1508 1492 1475 1473 1474 1476 1479 1483 1487 1490 1492 1495 1498 1500 1503 1505 1508 1510 1511 1512 1513 1514 1515 1517 1518 1518 1519 1520 1520 1521 1521 1521 1522 1522 1522 1522 1522 1522 1521 1521 1521 1520
1479 1488 1491 1511 1518 1524 1515 1501 1486 1474 1474 1475 1477 1480 1483 1485 1488 1491 1494 1496 1499 1501 1503 1506 1508 1509 1511 1512 1513 1514 1515 1516 1517 1518 1519 1519 1520 1520 1521 1521 1521 1521 1521 1521 1520 1520 1520 1520 1520
1469 1477 1496 1511 1526 1530 1519 1509 1502 1486 1481 1477 1479 1480 1483 1485 1487 1490 1493 1495 1497 1499 1502 1504 1506 1508 1509 1511 1512 1513 1515 1516 1516 1517 1518 1518 1519 1519 1520 1520 1519 1519 1519 1519 1519 1519 1519 1519 1518
1474 1479 1490 1506 1512 1526 1530 1515 1482 1479 1477 1477 1477 1479 1482 1484 1486 1489 1492 1494 1496 1498 1501 1503 1505 1507 1508 1510 1511 1512 1513 1514 1515 1516 1517 1517 1518 1518 1518 1518 1518 1518 1518 1518 1518 1518 1517 1517 1517
1468 1475 1486 1504 1510 1513 1521 1510 1473 1473 1474 1474 1476 1479 1481 1483 1486 1489 1491 1493 1495 1497 1499 1501 1503 1505 1507 1508 1510 1511 1512 1513 1514 1514 1515 1516 1516 1516 1517 1517 1516 1516 1516 1516 1516 1516 1516 1515 1515